�������l�o���
Date,Time,MP-1(��Sv/h),MP-2(��Sv/h),MP-3(��Sv/h),MP-4(��Sv/h),MP-5(��Sv/h),MP-6(��Sv/h),MP-7(��Sv/h),MP-8(��Sv/h),����,����(m/s),���J
2020/02/04,00:00,0.700,1.001,0.655,1.249,0.873,0.404,0.703,0.670,�k��,2.7,��
2020/02/04,00:10,0.701,1.006,0.657,1.251,0.874,0.403,0.706,0.668,�k,5.5,��
2020/02/04,00:20,0.701,1.005,0.657,1.250,0.873,0.403,0.703,0.670,�k,6.3,��
2020/02/04,00:30,0.700,1.006,0.657,1.249,0.870,0.403,0.705,0.669,�k,8.8,��
2020/02/04,00:40,0.700,1.003,0.656,1.252,0.872,0.403,0.703,0.668,�k,9.7,��
2020/02/04,00:50,0.699,1.006,0.655,1.249,0.874,0.403,0.704,0.667,�k,9.1,��
2020/02/04,01:00,0.700,1.005,0.656,1.250,0.873,0.403,0.704,0.669,�k,9.1,��
2020/02/04,01:10,0.700,1.005,0.657,1.249,0.872,0.402,0.704,0.669,�k,8.5,��
2020/02/04,01:20,0.698,1.005,0.655,1.247,0.872,0.400,0.703,0.670,�k,7.1,��
2020/02/04,01:30,0.700,1.004,0.655,1.250,0.873,0.401,0.703,0.670,�k,6.9,��
2020/02/04,01:40,0.698,1.004,0.653,1.251,0.873,0.401,0.704,0.668,�k�k��,7.1,��
2020/02/04,01:50,0.700,1.004,0.657,1.252,0.874,0.399,0.702,0.668,�k�k��,6.9,��
2020/02/04,02:00,0.701,1.007,0.655,1.250,0.873,0.402,0.702,0.670,�k,3.8,��
2020/02/04,02:10,0.699,1.004,0.655,1.251,0.872,0.401,0.704,0.669,�k,2.0,��
2020/02/04,02:20,0.697,1.005,0.655,1.249,0.871,0.400,0.702,0.667,�k�k��,2.8,��
2020/02/04,02:30,0.699,1.002,0.656,1.249,0.872,0.401,0.702,0.670,�k,2.8,��
2020/02/04,02:40,0.699,1.006,0.654,1.252,0.870,0.402,0.700,0.667,�k,3.1,��
2020/02/04,02:50,0.698,1.004,0.654,1.248,0.872,0.401,0.701,0.669,�k,4.1,��
2020/02/04,03:00,0.698,1.003,0.655,1.251,0.870,0.401,0.702,0.668,�k�k��,3.8,��
2020/02/04,03:10,0.699,1.005,0.654,1.250,0.872,0.400,0.701,0.667,�k,3.5,��
2020/02/04,03:20,0.698,1.005,0.654,1.251,0.872,0.399,0.702,0.669,�k,3.9,��
2020/02/04,03:30,0.700,1.002,0.655,1.249,0.869,0.399,0.701,0.668,�k�k��,5.2,��
2020/02/04,03:40,0.697,1.005,0.655,1.250,0.872,0.400,0.702,0.667,�k�k��,4.7,��
2020/02/04,03:50,0.699,1.003,0.653,1.247,0.870,0.399,0.703,0.668,�k�k��,2.9,��
2020/02/04,04:00,0.699,1.003,0.654,1.249,0.873,0.401,0.702,0.665,�k�k��,2.2,��
2020/02/04,04:10,0.700,1.004,0.654,1.247,0.870,0.398,0.702,0.667,�k,3.4,��
2020/02/04,04:20,0.698,1.005,0.655,1.250,0.872,0.399,0.700,0.670,�k�k��,3.3,��
2020/02/04,04:30,0.698,1.003,0.654,1.247,0.871,0.398,0.703,0.667,�k�k��,2.9,��
2020/02/04,04:40,0.697,1.005,0.653,1.248,0.871,0.400,0.701,0.667,�k��,2.5,��
2020/02/04,04:50,0.698,1.004,0.654,1.249,0.870,0.399,0.702,0.667,�k�k��,1.8,��
2020/02/04,05:00,0.698,1.002,0.653,1.248,0.871,0.399,0.701,0.667,�k�k��,2.0,��
2020/02/04,05:10,0.699,1.005,0.655,1.249,0.872,0.398,0.701,0.667,�k�k��,2.2,��
2020/02/04,05:20,0.699,1.004,0.655,1.247,0.872,0.399,0.701,0.666,�k�k��,2.4,��
2020/02/04,05:30,0.697,1.005,0.653,1.249,0.870,0.400,0.701,0.667,�k�k��,2.5,��
2020/02/04,05:40,0.697,1.002,0.654,1.250,0.871,0.401,0.702,0.667,�k��,2.2,��
2020/02/04,05:50,0.698,1.003,0.653,1.246,0.871,0.400,0.701,0.667,�k��,2.2,��
2020/02/04,06:00,0.697,1.002,0.656,1.251,0.871,0.401,0.701,0.667,�k��,2.5,��
2020/02/04,06:10,0.697,1.003,0.653,1.247,0.870,0.399,0.700,0.668,�k��,2.3,��
2020/02/04,06:20,0.698,1.002,0.654,1.248,0.870,0.400,0.702,0.667,�k��,1.6,��
2020/02/04,06:30,0.695,1.003,0.655,1.247,0.870,0.399,0.700,0.668,�k�k��,1.9,��
2020/02/04,06:40,0.698,1.001,0.653,1.249,0.870,0.400,0.701,0.668,���k��,1.6,��
2020/02/04,06:50,0.696,1.002,0.653,1.248,0.872,0.399,0.702,0.667,��,1.6,��
2020/02/04,07:00,0.697,1.003,0.653,1.249,0.870,0.401,0.701,0.666,��,2.4,��
2020/02/04,07:10,0.697,1.004,0.654,1.247,0.870,0.400,0.701,0.666,���쐼,2.5,��
2020/02/04,07:20,0.695,1.002,0.652,1.249,0.872,0.399,0.700,0.667,��,1.9,��
2020/02/04,07:30,0.698,1.003,0.652,1.249,0.873,0.400,0.702,0.668,���k��,3.3,��
2020/02/04,07:40,0.698,1.002,0.653,1.249,0.873,0.400,0.702,0.668,���k��,3.1,��
2020/02/04,07:50,0.698,1.002,0.654,1.252,0.871,0.400,0.703,0.669,���k��,3.8,��
2020/02/04,08:00,0.697,1.005,0.655,1.249,0.871,0.401,0.703,0.667,���k��,3.9,��
2020/02/04,08:10,0.697,1.003,0.654,1.249,0.872,0.400,0.703,0.668,���k��,3.8,��
2020/02/04,08:20,0.698,1.003,0.654,1.249,0.872,0.402,0.703,0.667,���k��,2.8,��
2020/02/04,08:30,0.698,1.005,0.651,1.247,0.870,0.400,0.705,0.666,���k��,1.8,��
2020/02/04,08:40,0.698,1.002,0.653,1.251,0.873,0.400,0.701,0.669,���k��,2.3,��
2020/02/04,08:50,0.698,1.003,0.649,1.249,0.870,0.401,0.703,0.669,���k��,2.4,��
2020/02/04,09:00,0.700,1.002,0.650,1.252,0.873,0.401,0.701,0.666,�k��,2.9,��
2020/02/04,09:10,0.699,1.005,0.650,1.249,0.872,0.401,0.703,0.669,�k�k��,2.7,��
2020/02/04,09:20,0.700,0.997,0.649,1.248,0.873,0.401,0.704,0.669,�k,3.9,��
2020/02/04,09:30,0.701,1.001,-,1.251,0.871,0.401,0.704,0.668,�k,4.9,��
2020/02/04,09:40,0.701,0.999,-,1.252,0.873,0.401,0.700,0.668,�k�k��,4.5,��
2020/02/04,09:50,0.699,1.000,-,1.251,0.871,0.401,0.701,0.668,�k�k��,4.9,��
2020/02/04,10:00,0.699,0.998,-,1.251,0.873,0.400,0.700,0.666,�k�k��,3.9,�L
2020/02/04,10:10,0.700,0.999,-,1.250,0.874,0.399,0.700,0.668,�k,3.4,��
2020/02/04,10:20,0.699,1.000,-,1.250,0.874,0.400,0.700,0.668,�k�k��,3.5,��
2020/02/04,10:30,0.700,0.999,-,1.250,0.873,0.400,0.700,0.670,�k�k��,3.8,��
2020/02/04,10:40,0.700,1.002,-,1.251,0.876,0.399,0.702,0.668,�k�k��,3.9,��
2020/02/04,10:50,0.700,1.003,-,1.250,0.875,0.401,0.698,0.669,�k�k��,4.2,�L
2020/02/04,11:00,0.701,1.004,-,1.251,0.874,0.401,0.702,0.668,�k�k��,4.4,��
2020/02/04,11:10,0.700,1.004,0.649,1.251,0.874,0.401,0.700,0.667,�k�k��,4.2,��
2020/02/04,11:20,0.700,1.002,0.651,1.248,0.875,0.401,0.700,0.669,�k�k��,4.9,��
2020/02/04,11:30,0.701,1.002,0.652,1.249,0.875,0.400,0.699,0.668,�k,5.5,��
2020/02/04,11:40,0.702,1.001,0.653,1.249,0.877,0.401,0.701,0.668,�k�k��,4.5,��
2020/02/04,11:50,0.702,1.001,0.653,1.250,0.875,0.401,0.701,0.668,�k�k��,5.8,��
2020/02/04,12:00,0.702,1.000,0.653,1.251,0.873,0.401,0.699,0.668,�k��,5.3,��
2020/02/04,12:10,0.702,1.001,0.655,1.250,0.873,0.400,0.701,0.671,�k��,4.3,��
2020/02/04,12:20,0.703,1.002,0.654,1.253,0.872,0.401,0.703,0.670,�k�k��,4.5,��
2020/02/04,12:30,0.702,1.003,0.656,1.252,0.870,0.400,0.703,0.670,���k��,5.3,��
2020/02/04,12:40,0.700,1.003,0.655,1.252,0.873,0.400,0.703,0.670,�k��,2.6,��
2020/02/04,12:50,0.689,1.004,0.654,1.252,0.874,0.400,0.702,0.670,�k��,4.0,��
2020/02/04,13:00,0.687,1.005,0.655,1.253,0.873,0.402,0.702,0.669,���k��,2.9,��
2020/02/04,13:10,0.682,1.003,0.652,1.253,0.870,0.400,0.702,0.669,���k��,4.5,��
2020/02/04,13:20,0.680,1.001,0.655,1.251,0.873,0.401,0.703,0.669,�k��,3.8,��
2020/02/04,13:30,0.681,1.001,0.654,1.251,0.872,0.401,0.704,0.668,�k��,4.2,��
2020/02/04,13:40,-,1.003,0.657,1.251,0.872,0.401,0.701,0.670,�k��,5.5,��
2020/02/04,13:50,-,1.004,0.654,1.251,0.874,0.401,0.702,0.667,�k��,4.1,��
2020/02/04,14:00,-,0.999,0.654,1.252,0.875,0.401,0.703,0.670,�k�k��,4.3,��
2020/02/04,14:10,0.681,1.003,0.654,1.252,0.876,0.401,0.703,0.668,�k��,3.0,��
2020/02/04,14:20,0.677,0.999,0.655,1.251,0.874,0.402,0.705,0.666,���쐼,2.8,��
2020/02/04,14:30,0.680,1.005,0.657,1.252,0.875,0.401,0.705,0.666,��,6.3,��
2020/02/04,14:40,0.680,1.004,0.656,1.254,0.873,0.401,0.704,0.665,���k��,5.3,��
2020/02/04,14:50,0.677,1.007,0.657,1.252,0.875,0.402,0.707,0.666,�k��,6.0,��
2020/02/04,15:00,0.683,1.004,0.657,1.253,0.873,0.403,0.705,0.667,�k�k��,4.0,��
2020/02/04,15:10,0.680,1.003,0.658,1.253,0.874,0.402,0.704,0.668,�k��,2.9,��
2020/02/04,15:20,0.685,1.005,0.657,1.255,0.874,0.402,0.704,0.668,�k��,4.1,��
2020/02/04,15:30,0.683,1.005,0.658,1.251,0.875,0.401,0.706,0.669,�k��,3.2,��
2020/02/04,15:40,0.690,1.008,0.658,1.253,0.875,0.403,0.704,0.669,�k��,3.4,��
2020/02/04,15:50,0.697,1.006,0.657,1.250,0.873,0.402,0.704,0.668,�k��,3.5,��
2020/02/04,16:00,0.696,1.010,0.657,1.251,0.873,0.403,0.706,0.669,���k��,4.1,��
2020/02/04,16:10,0.697,1.008,0.655,1.253,0.874,0.401,0.704,0.668,���k��,4.2,��
2020/02/04,16:20,0.696,1.007,0.658,1.254,0.874,0.401,0.705,0.668,���k��,3.9,��
2020/02/04,16:30,0.696,1.012,0.656,1.254,0.874,0.403,0.705,0.669,��,2.9,��
2020/02/04,16:40,0.696,1.006,0.657,1.253,0.874,0.401,0.704,0.668,���쓌,3.1,��
2020/02/04,16:50,0.698,1.010,0.656,1.252,0.875,0.402,0.704,0.669,���쓌,2.8,��
2020/02/04,17:00,0.698,1.009,0.659,1.252,0.876,0.402,0.704,0.668,��쓌,2.6,��
2020/02/04,17:10,0.697,1.008,0.657,1.253,0.877,0.402,0.705,0.670,��쓌,4.3,��
2020/02/04,17:20,0.699,1.009,0.657,1.252,0.878,0.402,0.703,0.669,��쓌,4.1,��
2020/02/04,17:30,0.697,1.007,0.657,1.253,0.871,0.404,0.704,0.669,��쓌,4.0,��
2020/02/04,17:40,0.697,1.010,0.657,1.253,0.875,0.404,0.704,0.668,��쓌,4.3,��
2020/02/04,17:50,0.697,1.011,0.655,1.252,0.876,0.402,0.704,0.668,��,4.7,��
2020/02/04,18:00,0.696,1.010,0.655,1.251,0.874,0.403,0.704,0.669,��,5.2,��
2020/02/04,18:10,0.697,1.007,0.658,1.253,0.874,0.402,0.703,0.669,��,4.6,��
2020/02/04,18:20,0.698,1.010,0.656,1.249,0.875,0.401,0.704,0.668,��,5.0,��
2020/02/04,18:30,0.696,1.009,0.660,1.253,0.875,0.403,0.704,0.668,��쐼,5.3,��
2020/02/04,18:40,0.698,1.007,0.658,1.252,0.875,0.401,0.704,0.670,��쐼,5.6,��
2020/02/04,18:50,0.696,1.010,0.659,1.252,0.877,0.402,0.703,0.668,��,5.0,��
2020/02/04,19:00,0.696,1.007,0.656,1.253,0.876,0.401,0.704,0.668,��쐼,4.0,��
2020/02/04,19:10,0.698,1.009,0.657,1.251,0.876,0.403,0.703,0.669,��쐼,4.5,��
2020/02/04,19:20,0.696,1.009,0.657,1.254,0.875,0.402,0.702,0.669,��쐼,4.9,��
2020/02/04,19:30,0.698,1.009,0.657,1.253,0.874,0.404,0.703,0.670,��쐼,5.2,��
2020/02/04,19:40,0.698,1.008,0.659,1.255,0.873,0.402,0.703,0.668,��쐼,5.5,��
2020/02/04,19:50,0.695,1.008,0.657,1.254,0.876,0.401,0.704,0.667,��,5.6,��
2020/02/04,20:00,0.696,1.009,0.657,1.250,0.876,0.401,0.702,0.668,��,5.2,��
2020/02/04,20:10,0.697,1.008,0.658,1.253,0.877,0.403,0.703,0.667,��쐼,4.4,��
2020/02/04,20:20,0.698,1.010,0.657,1.252,0.877,0.402,0.704,0.669,��쐼,4.2,��
2020/02/04,20:30,0.695,1.008,0.656,1.254,0.876,0.403,0.704,0.670,��쐼,4.5,��
2020/02/04,20:40,0.697,1.008,0.659,1.252,0.876,0.402,0.705,0.669,��쐼,5.3,��
2020/02/04,20:50,0.698,1.008,0.657,1.252,0.875,0.402,0.703,0.669,��쐼,5.5,��
2020/02/04,21:00,0.697,1.007,0.658,1.253,0.874,0.401,0.703,0.668,��쐼,5.8,��
2020/02/04,21:10,0.696,1.009,0.659,1.254,0.874,0.403,0.703,0.669,��쐼,5.8,��
2020/02/04,21:20,0.697,1.005,0.657,1.254,0.875,0.403,0.705,0.668,��쐼,5.5,��
2020/02/04,21:30,0.697,1.009,0.657,1.253,0.876,0.404,0.702,0.670,�쐼,4.0,��
2020/02/04,21:40,0.697,1.006,0.658,1.252,0.876,0.402,0.702,0.668,�쐼,3.5,��
2020/02/04,21:50,0.698,1.009,0.658,1.253,0.876,0.403,0.702,0.668,�쐼,3.5,��
2020/02/04,22:00,0.696,1.005,0.658,1.253,0.874,0.402,0.703,0.668,���쐼,2.7,��
2020/02/04,22:10,0.697,1.010,0.657,1.253,0.879,0.402,0.704,0.669,�쐼,2.8,��
2020/02/04,22:20,0.698,1.008,0.658,1.252,0.875,0.402,0.703,0.669,�쐼,3.4,��
2020/02/04,22:30,0.695,1.008,0.658,1.253,0.873,0.402,0.703,0.668,���쐼,3.6,��
2020/02/04,22:40,0.698,1.008,0.657,1.253,0.875,0.403,0.704,0.668,���쐼,3.2,��
2020/02/04,22:50,0.696,1.007,0.658,1.251,0.875,0.403,0.705,0.668,���쐼,3.4,��
2020/02/04,23:00,0.698,1.009,0.658,1.251,0.875,0.401,0.703,0.670,���쐼,3.2,��
2020/02/04,23:10,0.699,1.006,0.659,1.252,0.874,0.402,0.704,0.667,���쐼,2.5,��
2020/02/04,23:20,0.696,1.007,0.657,1.252,0.876,0.403,0.702,0.669,�쐼,2.3,��
2020/02/04,23:30,0.699,1.009,0.657,1.252,0.877,0.401,0.704,0.670,���쐼,2.3,��
2020/02/04,23:40,0.698,1.009,0.656,1.253,0.877,0.402,0.705,0.668,��,2.5,��
2020/02/04,23:50,0.698,1.007,0.657,1.252,0.874,0.402,0.703,0.668,���쐼,2.9,��
